| time (UTC) | temp C | wind direction | speed KPH | gust KPH | rain 1hr cm | rain 24hr cm | rain mn cm | humidity % | barometer mb |
| 20260508093247 | 6 | 0 | 0.0 | 0.0 | 0.00 | 0.00 | 0.00 | 78 | 1015.0 |
| 20260508092226 | 6 | 0 | 0.0 | 0.0 | 0.00 | 0.00 | 0.00 | 77 | 1014.9 |
| 20260508091207 | 6 | 0 | 0.0 | 0.0 | 0.00 | 0.00 | 0.00 | 77 | 1015.0 |
| 20260508085003 | 7 | 0 | 0.0 | 0.0 | 0.00 | 0.00 | 0.00 | 79 | 1014.8 |
| 20260508083940 | 7 | 0 | 0.0 | 0.0 | 0.00 | 0.00 | 0.00 | 79 | 1014.7 |
| 20260508083004 | 7 | 0 | 0.0 | 0.0 | 0.00 | 0.00 | 0.00 | 78 | 1014.7 |
| 20260508081953 | 7 | 0 | 0.0 | 0.0 | 0.00 | 0.00 | 0.00 | 77 | 1014.6 |
| 20260508080937 | 8 | 0 | 0.0 | 0.0 | 0.00 | 0.00 | 0.00 | 70 | 1014.4 |
| 20260508075954 | 8 | 0 | 0.0 | 0.0 | 0.00 | 0.00 | 0.00 | 63 | 1014.2 |
| 20260508074923 | 9 | 0 | 0.0 | 0.0 | 0.00 | 0.00 | 0.00 | 64 | 1014.1 |
| 20260508073903 | 9 | 0 | 0.0 | 1.6 | 0.00 | 0.00 | 0.00 | 63 | 1013.9 |
| 20260508072840 | 9 | 0 | 0.0 | 0.0 | 0.00 | 0.00 | 0.00 | 65 | 1013.7 |
| 20260508071854 | 9 | 0 | 0.0 | 0.0 | 0.00 | 0.00 | 0.00 | 66 | 1013.6 |
| 20260508065727 | 8 | 0 | 0.0 | 0.0 | 0.00 | 0.00 | 0.00 | 74 | 1013.3 |
| 20260508064741 | 8 | 0 | 0.0 | 0.0 | 0.00 | 0.00 | 0.00 | 81 | 1013.2 |
| 20260508063746 | 7 | 0 | 0.0 | 0.0 | 0.00 | 0.00 | 0.00 | 86 | 1013.1 |
| 20260508062711 | 7 | 0 | 0.0 | 0.0 | 0.00 | 0.00 | 0.00 | 88 | 1013.1 |
| 20260508061640 | 8 | 0 | 0.0 | 0.0 | 0.00 | 0.00 | 0.00 | 88 | 1013.0 |
| 20260508060645 | 8 | 0 | 0.0 | 0.0 | 0.00 | 0.00 | 0.00 | 87 | 1012.9 |
| 20260508055637 | 8 | 0 | 0.0 | 0.0 | 0.00 | 0.00 | 0.00 | 87 | 1013.0 |
| 20260508053506 | 8 | 0 | 0.0 | 0.0 | 0.00 | 0.00 | 0.00 | 86 | 1012.7 |
| 20260508052523 | 8 | 0 | 0.0 | 0.0 | 0.00 | 0.00 | 0.00 | 86 | 1012.6 |
| 20260508051455 | 8 | 0 | 0.0 | 0.0 | 0.00 | 0.03 | 0.00 | 85 | 1012.6 |
| 20260508050505 | 8 | 0 | 0.0 | 0.0 | 0.00 | 0.15 | 0.00 | 85 | 1012.5 |
| 20260508044336 | 8 | 0 | 0.0 | 0.0 | 0.00 | 0.53 | 0.00 | 84 | 1012.3 |
| 20260508043335 | 9 | 0 | 0.0 | 1.6 | 0.00 | 0.53 | 0.00 | 83 | 1012.2 |
| 20260508042307 | 9 | 0 | 0.0 | 1.6 | 0.00 | 0.53 | 0.00 | 83 | 1012.2 |
| 20260508041245 | 8 | 0 | 0.0 | 0.0 | 0.00 | 0.53 | 0.00 | 84 | 1012.0 |
| 20260508032858 | 9 | 0 | 0.0 | 0.0 | 0.00 | 0.53 | 0.53 | 82 | 1011.9 |
| 20260508031836 | 10 | 0 | 0.0 | 0.0 | 0.00 | 0.53 | 0.53 | 80 | 1011.9 |
| 20260508030823 | 10 | 0 | 0.0 | 0.0 | 0.00 | 0.53 | 0.53 | 80 | 1011.8 |
| 20260508025825 | 10 | 0 | 0.0 | 0.0 | 0.00 | 0.53 | 0.53 | 78 | 1011.8 |
| 20260508024833 | 10 | 0 | 0.0 | 1.6 | 0.00 | 0.53 | 0.53 | 77 | 1011.8 |
| 20260508023816 | 10 | 0 | 0.0 | 0.0 | 0.00 | 0.53 | 0.53 | 76 | 1011.8 |
| 20260508022807 | 10 | 134 | 0.0 | 0.0 | 0.00 | 0.53 | 0.53 | 75 | 1011.8 |
| 20260508020614 | 11 | 134 | 0.0 | 0.0 | 0.00 | 0.53 | 0.53 | 73 | 1011.6 |
| 20260508015604 | 11 | 130 | 0.0 | 4.8 | 0.00 | 0.53 | 0.53 | 72 | 1011.5 |
| 20260508013414 | 11 | 155 | 0.0 | 1.6 | 0.00 | 0.53 | 0.53 | 71 | 1011.5 |
| 20260508011258 | 12 | 130 | 0.0 | 3.2 | 0.00 | 0.53 | 0.53 | 68 | 1011.2 |
| 20260508010232 | 12 | 161 | 0.0 | 4.8 | 0.00 | 0.53 | 0.53 | 67 | 1011.1 |
| 20260508004123 | 12 | 147 | 0.0 | 6.4 | 0.00 | 0.53 | 0.53 | 65 | 1010.6 |
| 20260508003054 | 12 | 152 | 0.0 | 6.4 | 0.00 | 0.53 | 0.53 | 64 | 1010.5 |
| 20260508002054 | 12 | 140 | 0.0 | 8.0 | 0.00 | 0.53 | 0.53 | 63 | 1010.5 |
| 20260508001050 | 12 | 142 | 1.6 | 8.0 | 0.00 | 0.53 | 0.53 | 63 | 1010.3 |
| 20260508000110 | 13 | 157 | 0.0 | 16.1 | 0.00 | 0.53 | 0.53 | 62 | 1010.1 |
| 20260507235107 | 13 | 74 | 1.6 | 16.1 | 0.00 | 0.53 | 0.53 | 59 | 1010.0 |
| 20260507234036 | 13 | 157 | 0.0 | 14.5 | 0.00 | 0.53 | 0.53 | 59 | 1009.8 |
| 20260507230714 | 14 | 87 | 1.6 | 9.7 | 0.00 | 0.53 | 0.53 | 57 | 1009.4 |
| 20260507225739 | 15 | 190 | 1.6 | 8.0 | 0.00 | 0.53 | 0.53 | 56 | 1009.3 |
| 20260507224729 | 15 | 258 | 0.0 | 8.0 | 0.00 | 0.53 | 0.53 | 59 | 1009.1 |
| 20260507223727 | 15 | 157 | 0.0 | 8.0 | 0.00 | 0.53 | 0.53 | 57 | 1009.1 |
| 20260507222743 | 15 | 195 | 0.0 | 8.0 | 0.00 | 0.53 | 0.53 | 54 | 1008.9 |
| 20260507221736 | 15 | 218 | 0.0 | 8.0 | 0.00 | 0.53 | 0.53 | 53 | 1009.0 |
| 20260507220731 | 16 | 138 | 0.0 | 4.8 | 0.00 | 0.53 | 0.53 | 53 | 1008.8 |
| 20260507215734 | 16 | 239 | 0.0 | 4.8 | 0.00 | 0.53 | 0.53 | 49 | 1008.8 |
| 20260507214737 | 17 | 97 | 0.0 | 0.0 | 0.00 | 0.53 | 0.53 | 47 | 1008.8 |
| 20260507213738 | 17 | 97 | 0.0 | 3.2 | 0.00 | 0.53 | 0.53 | 40 | 1008.8 |
| 20260507212758 | 17 | 90 | 0.0 | 4.8 | 0.00 | 0.53 | 0.53 | 40 | 1008.9 |
| 20260507211809 | 17 | 38 | 0.0 | 4.8 | 0.00 | 0.53 | 0.53 | 36 | 1008.9 |
| 20260507210755 | 17 | 92 | 0.0 | 0.0 | 0.00 | 0.53 | 0.53 | 39 | 1009.0 |
| 20260507203507 | 16 | 33 | 0.0 | 1.6 | 0.00 | 0.53 | 0.53 | 37 | 1009.1 |
| 20260507202500 | 17 | 11 | 0.0 | 0.0 | 0.00 | 0.53 | 0.53 | 39 | 1009.0 |
| 20260507201515 | 17 | 31 | 0.0 | 8.0 | 0.00 | 0.53 | 0.53 | 36 | 1008.8 |
| 20260507195341 | 17 | 155 | 0.0 | 1.6 | 0.00 | 0.53 | 0.53 | 42 | 1009.0 |
| 20260507194306 | 17 | 74 | 0.0 | 4.8 | 0.00 | 0.53 | 0.53 | 41 | 1009.2 |
| 20260507192111 | 18 | 182 | 0.0 | 8.0 | 0.00 | 0.53 | 0.53 | 43 | 1009.6 |
| 20260507191055 | 17 | 192 | 0.0 | 4.8 | 0.00 | 0.53 | 0.53 | 46 | 1009.6 |
| 20260507190039 | 17 | 133 | 0.0 | 1.6 | 0.00 | 0.53 | 0.53 | 43 | 1009.6 |
| 20260507185031 | 16 | 150 | 0.0 | 6.4 | 0.00 | 0.53 | 0.53 | 47 | 1009.8 |
| 20260507182916 | 16 | 77 | 0.0 | 8.0 | 0.00 | 0.53 | 0.53 | 46 | 1010.2 |
| 20260507181920 | 16 | 207 | 1.6 | 8.0 | 0.00 | 0.53 | 0.53 | 48 | 1010.2 |
| 20260507180938 | 16 | 308 | 0.0 | 4.8 | 0.00 | 0.53 | 0.53 | 47 | 1010.3 |
| 20260507175945 | 16 | 284 | 0.0 | 3.2 | 0.00 | 0.53 | 0.53 | 47 | 1010.5 |
| 20260507175005 | 15 | 55 | 0.0 | 1.6 | 0.00 | 0.53 | 0.53 | 51 | 1010.8 |
| 20260507174017 | 15 | 105 | 0.0 | 6.4 | 0.00 | 0.53 | 0.53 | 52 | 1010.9 |
| 20260507173002 | 15 | 248 | 1.6 | 6.4 | 0.00 | 0.53 | 0.53 | 44 | 1011.0 |
| 20260507171956 | 16 | 207 | 0.0 | 6.4 | 0.00 | 0.53 | 0.53 | 44 | 1011.2 |
| 20260507170924 | 13 | 46 | 0.0 | 0.0 | 0.00 | 0.53 | 0.53 | 48 | 1011.2 |
| 20260507165921 | 15 | 331 | 0.0 | 3.2 | 0.00 | 0.53 | 0.53 | 45 | 1011.3 |
| 20260507163757 | 12 | 32 | 0.0 | 0.0 | 0.00 | 0.53 | 0.53 | 59 | 1012.0 |
| 20260507162741 | 12 | 32 | 0.0 | 0.0 | 0.00 | 0.53 | 0.53 | 53 | 1012.2 |
| 20260507161802 | 12 | 32 | 0.0 | 1.6 | 0.00 | 0.53 | 0.53 | 53 | 1012.2 |
| 20260507160755 | 12 | 19 | 0.0 | 1.6 | 0.00 | 0.53 | 0.53 | 56 | 1012.3 |
| 20260507155819 | 12 | 30 | 0.0 | 0.0 | 0.00 | 0.53 | 0.53 | 56 | 1012.5 |
| 20260507154829 | 12 | 30 | 0.0 | 1.6 | 0.00 | 0.53 | 0.53 | 54 | 1012.6 |
| 20260507153828 | 12 | 35 | 0.0 | 1.6 | 0.00 | 0.53 | 0.53 | 57 | 1012.7 |
| 20260507152849 | 12 | 22 | 0.0 | 3.2 | 0.00 | 0.53 | 0.53 | 54 | 1012.6 |
| 20260507151912 | 12 | 49 | 0.0 | 0.0 | 0.00 | 0.56 | 0.53 | 62 | 1012.8 |
| 20260507150930 | 12 | 49 | 0.0 | 1.6 | 0.00 | 0.56 | 0.53 | 57 | 1012.9 |
| 20260507145938 | 12 | 109 | 0.0 | 0.0 | 0.00 | 0.56 | 0.53 | 59 | 1013.0 |
| 20260507142656 | 11 | 0 | 0.0 | 0.0 | 0.00 | 0.64 | 0.53 | 64 | 1013.4 |
| 20260507141651 | 11 | 0 | 0.0 | 1.6 | 0.00 | 0.69 | 0.53 | 60 | 1013.3 |
| 20260507140622 | 11 | 0 | 0.0 | 1.6 | 0.00 | 0.71 | 0.53 | 61 | 1013.5 |
| 20260507134541 | 11 | 0 | 0.0 | 0.0 | 0.00 | 0.84 | 0.53 | 66 | 1013.6 |
| 20260507132436 | 11 | 0 | 0.0 | 1.6 | 0.00 | 0.94 | 0.53 | 64 | 1013.5 |
| 20260507130239 | 11 | 0 | 0.0 | 0.0 | 0.00 | 0.97 | 0.53 | 65 | 1013.7 |
| 20260507124045 | 11 | 0 | 0.0 | 3.2 | 0.00 | 1.02 | 0.53 | 67 | 1013.5 |
| 20260507123013 | 11 | 32 | 0.0 | 0.0 | 0.00 | 1.04 | 0.53 | 70 | 1013.6 |
| 20260507121954 | 11 | 42 | 0.0 | 3.2 | 0.00 | 1.04 | 0.53 | 69 | 1013.4 |
| 20260507120931 | 11 | 43 | 0.0 | 0.0 | 0.00 | 1.04 | 0.53 | 81 | 1013.3 |
| 20260507115956 | 11 | 44 | 0.0 | 3.2 | 0.00 | 1.04 | 0.53 | 85 | 1013.1 |
| 20260507114939 | 11 | 38 | 0.0 | 0.0 | 0.00 | 1.04 | 0.53 | 87 | 1013.2 |
| 20260507113948 | 11 | 38 | 0.0 | 1.6 | 0.00 | 1.04 | 0.53 | 88 | 1013.0 |
| 20260507112918 | 11 | 38 | 0.0 | 0.0 | 0.00 | 1.04 | 0.53 | 89 | 1013.0 |
| 20260507110742 | 11 | 38 | 0.0 | 0.0 | 0.00 | 1.04 | 0.53 | 90 | 1013.1 |
| 20260507105745 | 11 | 38 | 0.0 | 0.0 | 0.00 | 1.04 | 0.53 | 91 | 1013.0 |
| 20260507104739 | 10 | 38 | 0.0 | 0.0 | 0.00 | 1.04 | 0.53 | 92 | 1012.9 |
| 20260507102555 | 11 | 38 | 0.0 | 0.0 | 0.00 | 1.04 | 0.53 | 92 | 1012.5 |
| 20260507101525 | 11 | 38 | 0.0 | 0.0 | 0.00 | 1.04 | 0.53 | 92 | 1012.4 |
| 20260507095437 | 11 | 38 | 0.0 | 0.0 | 0.00 | 1.04 | 0.53 | 91 | 1012.3 |
| 20260507094405 | 11 | 38 | 0.0 | 0.0 | 0.00 | 1.04 | 0.53 | 91 | 1012.3 |
| 20260507093351 | 11 | 38 | 0.0 | 0.0 | 0.00 | 1.04 | 0.53 | 90 | 1012.1 |